Regional Weather Roundup
Issued by NWS Sterling, VA

Home | Current Version | Previous Version | Graphics & Text | Print | Product List | Glossary On
Versions: 1 2 3 4 5 6 7 8 9 10 11 12 13 14 15 16 17 18 19 20 21 22 23 24 25 26 27 28 29 30 31 32 33 34 35 36 37 38 39 40 41 42 43 44 45 46 47 48 49 50
000
ASUS41 KLWX 261710
RWRLWX

REGIONAL WEATHER ROUNDUP
NATIONAL WEATHER SERVICE BALTIMORE MD/WASHINGTON DC
100 PM EDT SUN APR 26 2015

Note: "FAIR" indicates few or no clouds below 12,000 feet
with no significant weather and/or obstructions to visibility.
 TC=TEMPERATURE CELSIUS

 * =Non NWS site. Station does not report precipitation (e.g. rain,
    snow, etc.), thunder, or fog.

DCZ001-MDZ009-015-VAZ040>042-051-053>054-261800-
WASHINGTON METRO

CITY           SKY/WX    TMP DP  RH WIND       PRES   REMARKS
WASHINGTON NAT MOSUNNY   62  34  35 CALM      29.72F
DULLES         MOSUNNY   57  33  40 VRB5G16   29.72F
ANDREWS AFB    SUNNY     58  33  39 NE7       29.70F
FT BELVOIR     SUNNY     60  35  39 VRB6      29.71F
QUANTICO       PTSUNNY   58  38  47 E9        29.73F
COLLEGE PARK*  SUNNY     59  32  36 N5        29.71F
LEESBURG*      SUNNY     59  37  44 NE8       29.73F
MANASSAS*      MOSUNNY   59  36  41 N10       29.72F
GAITHERSBURG*  MOSUNNY   59  34  38 NW7       29.75F

$$

MDZ006>007-011-014-261800-
BALTIMORE METRO

CITY           SKY/WX    TMP DP  RH WIND       PRES   REMARKS
BWI AIRPORT    MOSUNNY   60  32  34 CALM      29.70F
MD SCIENCE CTR   N/A     60  27  28 MISG      29.71F
MARTIN STATE   MOSUNNY   61  34  36 NE7       29.72F
ANNAPOLIS      SUNNY     57  31  37 VRB5      29.71F
FORT MEADE*    MOSUNNY   59  32  36 NE5       29.73F

$$

MDZ012-015-019>023-261800-
MARYLAND EASTERN SHORE

CITY           SKY/WX    TMP DP  RH WIND       PRES   REMARKS
OCEAN CITY     SUNNY     56  43  61 E10       29.70S
SALISBURY      MOSUNNY   59  37  44 VRB6      29.68F
BAY BRIDGE AP*   N/A    N/A N/A N/A NW7       29.72S
CAMBRIDGE*     SUNNY     59  39  47 NW8       29.70S
EASTON*        SUNNY     63  39  42 VRB8      29.73F

$$

MDZ017>025-261800-
SOUTHERN MARYLAND

CITY           SKY/WX    TMP DP  RH WIND       PRES   REMARKS
PATUXENT RIVER MOSUNNY   57  41  55 VRB3      29.71F
ST INIGOES     MOSUNNY   55  43  63 SW9       29.70F
LEONARDTOWN*   MOSUNNY   55  36  47 NW6       29.72F

$$

MDZ003>005-261800-
NORTH CENTRAL MARYLAND

CITY           SKY/WX    TMP DP  RH WIND       PRES   REMARKS
FREDERICK*     SUNNY     61  27  27 NE10      29.74F
HAGERSTOWN APT SUNNY     55  29  36 VRB3      29.72F
WESTMINSTER*   SUNNY     55  28  35 N8        29.71F

$$

MDZ501>502-261800-
WESTERN MARYLAND

CITY           SKY/WX    TMP DP  RH WIND       PRES   REMARKS
OAKLAND*       MOSUNNY   48  32  53 NE3       29.71F
CUMBERLAND*    SUNNY     59  32  36 E3        29.77F

$$

VAZ025>031-261800-
SHENANDOAH VALLEY

CITY           SKY/WX    TMP DP  RH WIND       PRES   REMARKS
WINCHESTER*    SUNNY     57  27  30 N6        29.73F
FRONT ROYAL*   FAIR      54  36  50 NW3       29.72F
LURAY*         FAIR      57  41  54 CALM      29.73F
NEW MARKET*    FAIR      53  38  56 CALM      29.73F
STAUNTON*      CLOUDY    51  37  58 NE3       29.76S
WAYNESBORO*    CLOUDY    47  37  68 N5        29.74S

$$

WVZ021-048>050-054>055-261800-
EASTERN WEST VIRGINIA PANHANDLE

CITY           SKY/WX    TMP DP  RH WIND       PRES   REMARKS
MARTINSBURG    SUNNY     58  29  33 VRB6      29.73F
PETERSBURG*    MOSUNNY   55  36  48 E3        29.75F

$$

VAZ036>039-050-261800-
CENTRAL FOOTHILLS

CITY           SKY/WX    TMP DP  RH WIND       PRES   REMARKS
CHARLOTTESVILL CLOUDY    55  39  54 CALM      29.73F
CULPEPER*        N/A    N/A N/A N/A MISG        N/A
ORANGE*        PTSUNNY   55  39  54 N7        29.74F
GORDONSVILLE*  CLOUDY    55  37  50 NE6       29.72F
WARRENTON*     FAIR      60  39  45 N5        29.72F

$$

VAZ055>057-261800-
NORTH AND CENTRAL PIEDMONT

CITY           SKY/WX    TMP DP  RH WIND       PRES   REMARKS
FREDERICKSBRG* SUNNY     59  40  49 NE6       29.72F
STAFFORD*      PTSUNNY   57  33  40 CALM      29.76S

$$

NCZ024-NYZ072-PAZ021-071-VAZ022-071-261800-
OTHER REGIONAL OBSERVATIONS

CITY           SKY/WX    TMP DP  RH WIND       PRES   REMARKS
NEW YORK CITY  PTSUNNY   59  27  29 VRB3      29.70F
PHILADELPHIA   MOSUNNY   61  30  31 SE6       29.70F
PITTSBURGH     MOSUNNY   55  26  32 N12G17    29.77F
ROANOKE        CLOUDY    47  42  83 NE8       29.77S
RICHMOND       PTSUNNY   55  42  61 CALM      29.73F
RALEIGH        CLOUDY    50  46  86 NE9       29.72F

$$

ANZ530>537-261800-
MARINE OBSERVATIONS

STATION/POSITION TIME  TEMP    WIND        PRES
                       AIR SEA DIR/SP/G
                 (UTC) (F)     (DEG/KT/KT) (MB)
THOMAS PT LIGHT  1700   53 52   30/  2/  3 1007.0F
BALT KEY BRIDGE  1600   56      40/  1/  4 1006.1F
COVE POINT       1600   49     360/  8/ 10 1007.1R
LEWISETTA        1600   52 55              1006.2R
SOLOMONS ISLAND  1600      55                N/A
PINEY POINT      1600          310/ 12/ 14   N/A

$$



USA.gov is the U.S. government's official web portal to all federal, state and local government web resources and services.